Location: Waning Moon II Observatory
(30.3730°N, 89.7620°W)
Time: 12:58:46
(UTC-05:00)

Daily predictions for brighter satellites

Satellite Brightness Start Highest point End
(mag) Time Altitude Azimuth Time Altitude Azimuth Time Altitude Azimuth
BREEZE-M DEB (TANK) 3.9 20:03:26 10° NW 20:07:28 74° NE 20:23:07 10° SE
Chandra Rocket (1) 4.3 20:14:18 10° W 20:20:08 76° S 20:45:54 10° ESE
CZ-2D R/B 3.7 20:18:55 10° SSE 20:22:39 45° ENE 20:26:24 10° N
Okean 2 3.5 20:22:28 10° S 20:26:39 88° W 20:30:51 10° N
Milstar 3 Cent rocket 3.5 20:15:52 10° W 20:26:42 53° SSW 20:32:22 10° SE
Cosmos 1110 Rocket 4.5 20:24:23 10° NNW 20:29:37 66° WSW 20:34:46 10° S
Cosmos 1743 3.1 20:26:00 10° NNW 20:29:48 68° W 20:33:35 10° S
FENGYUN 3A 3.9 20:25:32 10° SSE 20:30:42 52° ENE 20:35:55 10° N
Cosmos 1602 Rocket 3.9 20:28:05 10° SSE 20:32:22 47° E 20:36:39 10° NNE
CZ-2C R/B 2.7 20:31:20 10° ESE 20:32:23 12° ENE 20:33:26 10° NE
Cosmos 1603 3.9 20:29:17 10° SSW 20:34:54 77° WNW 20:40:30 10° NNE
APEX 4.1 20:35:50 10° NNW 20:40:35 87° ENE 20:46:47 10° SSE
USA 186 1.3 20:38:43 10° SSE 20:41:29 61° ENE 20:44:04 10° N
Cosmos 2058 Rocket 3.2 20:38:04 10° N 20:42:25 80° W 20:46:46 10° S
ALOS 2.2 20:38:57 10° SSE 20:43:36 74° ENE 20:48:16 10° N
Lacrosse 4 Rocket 1.9 20:40:35 10° S 20:44:15 35° ESE 20:47:57 10° NE
deb Centaur AC-2 4.2 20:39:44 10° W 20:44:18 87° S 20:49:42 10° E
Meteor 2-9 Rocket 4.3 20:38:39 10° N 20:44:26 75° E 20:50:16 10° SSE
Timation 1 Rocket 4.4 20:39:18 10° NNW 20:45:18 68° ENE 20:51:09 10° SSE
Meteor 1-15 Rocket 4.2 20:43:02 10° N 20:48:41 77° E 20:54:24 10° SSE
Cosmos 1812 Rocket 4.5 20:45:27 10° NNE 20:49:22 30° E 20:52:17 15° SE
Atlas Centaur 2 2.8 20:44:57 10° W 20:51:31 89° N 20:59:35 10° E
Cosmos 1943 3.2 20:48:38 10° S 20:54:10 59° ESE 20:59:45 10° NNE
ISS 0.5 20:54:29 10° NW 20:54:48 10° NNW 20:55:06 10° NNW
Tsikada Rocket 4.0 20:48:35 10° S 20:54:55 68° E 21:01:15 10° NNE
H-2A R/B 2.7 20:53:24 16° SE 20:56:21 37° ENE 21:00:21 10° N
Cosmos 2228 3.2 20:57:14 10° N 21:01:39 74° W 21:06:00 10° S
Cosmos 1626 Rocket 3.9 20:58:44 10° SSW 21:03:09 70° W 21:07:32 10° N
YAOGAN 11 4.0 20:59:01 10° SSE 21:03:23 90° N 21:07:41 10° NNW
Cosmos 1238 4.4 21:01:42 17° SSE 21:03:49 47° E 21:06:43 10° NNE
GPS 2-17 Rocket1 4.4 21:01:11 10° SW 21:04:23 20° S 21:05:25 18° SSE
H-2A R/B 3.4 21:03:47 10° S 21:07:38 55° W 21:11:33 10° NNW
deb Chang Zheng 4 3.6 21:04:35 10° NNE 21:08:58 88° WNW 21:13:18 10° SSW
Mugunghwa Rocket 4.2 21:03:05 10° WSW 21:09:05 47° SSE 21:13:45 17° E
Abrixas rocket 4.2 21:07:22 10° W 21:10:04 22° SW 21:12:04 14° S
Cosmos 1464 Rocket 4.5 21:05:56 10° NNW 21:11:58 62° W 21:18:04 10° S
Centaur D AC-28 2.3 21:09:37 10° W 21:13:25 38° SSW 21:15:06 24° SE
Cosmos 1939 Rocket 3.3 21:12:46 25° SE 21:14:46 46° ENE 21:18:43 10° N
Delta 168 3.4 21:13:48 10° WSW 21:16:38 30° S 21:17:16 28° SSE
CZ-4B R/B 4.3 21:12:41 10° NE 21:17:19 32° E 21:19:12 25° SE
Cosmos 1461 4.0 21:13:51 10° NW 21:17:43 38° WSW 21:20:36 15° S
ATLAS 3B R/B 3.0 21:10:37 10° SSW 21:18:19 86° WNW 21:25:59 10° NNE
Cosmos 1190 Rocket 3.9 21:13:59 10° S 21:19:15 75° ESE 21:24:34 10° NNE
Cosmos 1816 Rocket 4.5 21:13:14 10° S 21:19:35 84° E 21:25:56 10° N
Cosmos 1346 Rocket 3.3 21:19:41 32° ESE 21:20:30 36° E 21:24:07 10° NNE
SPOT 5 3.3 21:21:02 28° ESE 21:22:26 35° ENE 21:26:23 10° N
Cosmos 1953 Rocket 4.1 21:23:11 31° SE 21:24:30 39° E 21:28:38 10° NNE
Nimbus 7 Rocket 4.3 21:19:07 10° NNE 21:25:03 86° ESE 21:30:55 10° SSW
CZ-4 SHROUD 4.0 21:25:30 34° ENE 21:25:31 34° ENE 21:28:24 10° N
PSLV R/B 4.1 21:26:38 32° ENE 21:26:38 32° ENE 21:29:18 10° N
Cosmos 489 Rocket 4.4 21:23:43 10° S 21:29:59 68° ESE 21:36:18 10° NNE
Cosmos 1634 Rocket 4.3 21:24:37 10° N 21:30:31 45° E 21:33:08 30° SE
Cosmos 2346 Rocket 4.4 21:29:30 17° S 21:34:26 69° E 21:40:31 10° N
Cosmos 676 Rocket 4.0 21:32:59 19° S 21:36:47 62° ESE 21:42:03 10° NNE
ERS-1 Rocket 3.6 21:37:16 17° S 21:41:01 52° W 21:45:55 10° NNW
Cosmos 2369 Rocket 2.3 21:37:08 10° N 21:42:42 58° ENE 21:44:34 39° SE
SPOT 1/Viking Rocket 4.3 21:41:55 31° E 21:42:54 33° ENE 21:47:29 10° N
Cosmos 1932 4.3 21:37:09 10° SSW 21:43:17 73° ESE 21:49:28 10° NNE
YAOGAN 6 3.9 21:43:54 28° ENE 21:43:54 28° ENE 21:46:44 10° NNE
Cosmos 1766 4.5 21:52:25 10° NNE 21:55:14 30° NE 21:55:14 30° NE
Cosmos 1758 Rocket 3.4 21:57:13 62° S 21:57:55 84° E 22:02:17 10° N
Envisat 3.2 21:57:18 37° S 21:59:17 68° WSW 22:04:21 10° NNW
CZ-4C R/B 4.4 22:03:35 10° ENE 22:03:35 10° ENE 22:03:40 10° ENE
GEOS 3 Rocket 3.8 21:59:26 43° S 22:01:05 67° WSW 22:06:19 10° NW
Cosmos 407 Rocket 4.3 21:57:59 10° SSW 22:03:05 50° WNW 22:08:10 10° N
USA 238 DEB 3.7 21:58:55 10° SSW 22:06:02 86° ESE 22:13:08 10° NNE
USA 238 3.6 21:59:02 10° SSW 22:06:08 85° ESE 22:13:14 10° NNE
SL-27 R/B 4.1 22:10:37 27° NNE 22:10:37 27° NNE 22:12:16 10° NNE
MetOp-A 4.1 22:12:58 55° S 22:14:10 78° WSW 22:19:33 10° NNW
Cosmos 2263 4.0 22:12:41 10° NNW 22:18:20 86° ENE 22:19:04 69° SSE
COSMOS 2406 3.1 22:21:23 63° S 22:22:22 84° ESE 22:28:06 10° NNE
Lacrosse 4 Rocket 4.4 22:20:58 10° W 22:23:04 14° WNW 22:25:10 10° NNW
Cosmos 1943 Rocket 2.3 22:26:32 10° N 22:31:53 58° ENE 22:31:53 58° ENE
SeaSat 1 2.4 22:32:37 81° WNW 22:32:37 81° WNW 22:37:25 10° NNW
Landsat 7 4.5 22:41:38 48° NNE 22:41:38 48° NNE 22:45:15 10° N
Atlas Centaur 2 2.8 22:33:59 10° W 22:41:25 76° SSW 22:42:50 63° SE
Cosmos 1741 Rocket 4.2 22:49:48 68° NNW 22:49:48 68° NNW 22:54:37 10° NNE
Cosmos 1092 Rocket 4.2 22:51:45 57° ENE 22:51:45 57° ENE 22:57:14 10° NNE
Cosmos 1953 4.2 22:50:55 10° N 22:52:54 28° N 22:52:54 28° N
Terra 2.9 22:57:55 40° NNE 22:57:55 40° NNE 23:01:04 10° N
Geosat 4.4 22:51:33 10° NNE 22:55:55 60° NNW 22:55:55 60° NNW
Nadezhda 4 Rocket 3.9 22:58:24 82° WSW 22:58:30 82° W 23:04:52 10° N
ARGOS 3.7 22:59:31 50° W 22:59:31 50° W 23:04:35 10° NNW
ATLAS 5 CENTAUR R/B4.423:21:28ESE23:21:28ESE22:56:00WSW
H-2A R/B 2.9 23:14:20 46° NNW 23:14:20 46° NNW 23:17:53 10° NNW
NOSS 3-2 (A) 3.7 23:22:46 64° NNW 23:22:46 64° NNW 23:28:40 10° NNE
USA 234 3.3 23:24:29 71° NNE 23:24:29 71° NNE 23:30:48 10° NW
Cosmos 2369 Rocket 4.5 23:23:28 10° WNW 23:26:05 13° W 23:26:23 13° WSW
Cosmos 2344 4.3 23:35:51 39° ENE 23:35:51 39° ENE 23:41:18 10° NE
CZ-4C R/B 3.4 23:48:42 37° NNW 23:48:42 37° NNW 23:53:11 10° NNE
